COSMOS 2251 DEB

Satellite information

Favourite Embed

Satellite Type and Status

DEBRISIN ORBIT

Key statistics

Satellite COSMOS 2251 DEB at a glance.

Uptime

11869

Days in orbit

Revolutions

≈ 14.7

Per day

Orbit

LEO

Low Earth Orbit

Inclination

74.0

Latest

Satellite identification and parameters

Extended collection of information and parameters for COSMOS 2251 DEB.

Object identification

Identified? True

Debris? True

Object name: COSMOS 2251 DEB

International designator: 1993-036PR

Object number (NORAD): 34343

Object ID (CCSDS): 34343

Country: COMMONWEALTH OF INDEPENDENT STATES (CIS)

Current information (Y/N): Y

RCS size: SMALL

Orbital parameters

Period: 97.995 minutes

Inclination: 74.0197 deg

SMA: 7040.909 km

Apoapsis: 679.326 km

Periapsis: 646.222 km

RAAN: 87.7174 deg

Eccentricy: 0.00235082

Argument of periapsis: 2.1063 deg

Mean anomaly: 117.4642 deg

Mean motion: 14.69466321 rev/day

Mean motion (dot): 0.00010048 rev/day2

B* drag term: 0.0016916292 1/REarth

Two-line elements (TLE)

Creation date: Dec. 14, 2025, 3:07 a.m.

Reference frame: TEME

Reference center: EARTH

Epoch: Dec. 13, 2025, 4:28 p.m. UTC

TLE line 0: 0 COSMOS 2251 DEB

TLE line 1: 1 34343U 93036PR 25347.68675823 .00010048 00000-0 16916-2 0 9992

TLE line 2: 2 34343 74.0197 87.7174 0023508 2.1063 117.4642 14.69466321887449

Live tracking on map

Real-time ground track for satellite COSMOS 2251 DEB.

In-orbit conjunctions

A list of the most updated potential collisions computed for object COSMOS 2251 DEB.

Target Orbit TCA Probability of collision Miss distance Type
SL-8 R/B LEO 2025-04-16 22:12:41 0.0001198104 880.0 (m) ROCKET BODY

Associated space launch

Military communications satellite. Destroyed in a collision with Iridium 33.

COSMOS 2251 DEB was lifted into orbit during the mission ‘Kosmos-3M | Strela-2M 51’, on board a Kosmos-3M space rocket.

The launch took place on June 16, 1993, 4:17 a.m. from 132/1 (132L).

For more information about the launch, click the button.

Launch to space Kosmos-3M | Strela-2M 51
Kosmos-3M | Strela-2M 51

Agency: N/A

Status: Launch Successful

Launch date: June 16, 1993, 4:17 a.m. UTC

Rocket: Kosmos-3M

Launch pad: 132/1 (132L)

Location: Plesetsk Cosmodrome, Russian Federation

...

Latest news about this satellite

There are no fresh news available about this satellite. Check back as we update our databases every day.


Newsletter sign-up

Weekly statistics, charts and insights to help you stay on top of the space industry.